• In Denmark
  • List of Countries
  • For 7 days
  • Water Temperature
  • Satellite Maps
  • Weather Map
  • Weather Widgets
  • user-avatar
    Login

    Hourly Weather Jeziorsko

    Today, 21 October, Sunday

    Time Temperature Precipitation Wind Pressure Humidity
    00:00 +8°C° 0.1 mm 3 mps 759 mmHg 86%
    01:00 +7°C° 0.1 mm 2 mps 759 mmHg 90%
    02:00 +7°C° 0 mm 2 mps 759 mmHg 92%
    03:00 +6°C° 0 mm 2 mps 759 mmHg 93%
    04:00 +6°C° 0 mm 2 mps 758 mmHg 95%
    05:00 +6°C° 0 mm 2 mps 759 mmHg 95%
    06:00 +7°C° 0 mm 1 mps 759 mmHg 95%
    07:00 +7°C° 0 mm 1 mps 759 mmHg 95%
    08:00 +8°C° 0 mm 1 mps 760 mmHg 87%
    09:00 +10°C° 0 mm 1 mps 760 mmHg 79%
    10:00 +11°C° 0 mm 1 mps 760 mmHg 72%
    11:00 +12°C° 0 mm 1 mps 760 mmHg 67%
    12:00 +13°C° 0 mm 1 mps 760 mmHg 62%
    13:00 +14°C° 0 mm 1 mps 760 mmHg 57%
    14:00 +13°C° 0 mm 1 mps 760 mmHg 59%
    15:00 +13°C° 0 mm 1 mps 760 mmHg 60%
    16:00 +13°C° 0 mm 1 mps 760 mmHg 62%
    17:00 +12°C° 0 mm 1 mps 760 mmHg 65%
    18:00 +10°C° 0 mm 0 mps 760 mmHg 69%
    19:00 +9°C° 0 mm 0 mps 760 mmHg 73%
    20:00 +9°C° 0 mm 1 mps 760 mmHg 74%
    21:00 +9°C° 0 mm 1 mps 760 mmHg 76%
    22:00 +9°C° 0 mm 1 mps 760 mmHg 77%
    23:00 +8°C° 0 mm 1 mps 760 mmHg 79%

    Tomorrow, 22 October, Monday

    Time Temperature Precipitation Wind Pressure Humidity
    00:00 +8°C° 0 mm 1 mps 760 mmHg 80%
    01:00 +8°C° 0 mm 1 mps 760 mmHg 81%
    02:00 +7°C° 0 mm 1 mps 759 mmHg 83%
    03:00 +7°C° 0 mm 1 mps 759 mmHg 84%
    04:00 +7°C° 0 mm 1 mps 759 mmHg 85%
    05:00 +7°C° 0 mm 1 mps 759 mmHg 86%
    06:00 +7°C° 0 mm 1 mps 759 mmHg 87%
    07:00 +6°C° 0 mm 2 mps 759 mmHg 87%
    08:00 +7°C° 0 mm 2 mps 759 mmHg 80%
    09:00 +9°C° 0 mm 2 mps 759 mmHg 73%
    10:00 +12°C° 0 mm 2 mps 758 mmHg 65%
    11:00 +12°C° 0 mm 3 mps 758 mmHg 61%
    12:00 +12°C° 0 mm 3 mps 758 mmHg 57%
    13:00 +13°C° 0 mm 4 mps 757 mmHg 53%
    14:00 +13°C° 0 mm 3 mps 757 mmHg 56%
    15:00 +12°C° 0 mm 3 mps 757 mmHg 59%
    16:00 +12°C° 0 mm 3 mps 756 mmHg 62%
    17:00 +11°C° 0.2 mm 3 mps 756 mmHg 69%
    18:00 +10°C° 0.2 mm 4 mps 757 mmHg 75%
    19:00 +10°C° 0.2 mm 4 mps 757 mmHg 81%
    20:00 +9°C° 0.1 mm 5 mps 757 mmHg 80%
    21:00 +8°C° 0.1 mm 5 mps 757 mmHg 79%
    22:00 +8°C° 0.1 mm 5 mps 758 mmHg 77%
    23:00 +7°C° 0 mm 5 mps 758 mmHg 80%

    Day after tomorrow, 23 October, Tuesday

    Time Temperature Precipitation Wind Pressure Humidity
    00:00 +6°C° 0 mm 4 mps 758 mmHg 83%
    01:00 +5°C° 0 mm 4 mps 758 mmHg 85%
    02:00 +5°C° 0 mm 4 mps 758 mmHg 86%
    03:00 +4°C° 0 mm 4 mps 758 mmHg 87%
    04:00 +4°C° 0 mm 4 mps 757 mmHg 88%
    05:00 +4°C° 0 mm 4 mps 757 mmHg 87%
    06:00 +4°C° 0 mm 4 mps 757 mmHg 86%
    07:00 +3°C° 0 mm 5 mps 756 mmHg 86%
    08:00 +4°C° 0 mm 6 mps 756 mmHg 80%
    09:00 +5°C° 0 mm 6 mps 755 mmHg 74%
    10:00 +5°C° 0 mm 7 mps 754 mmHg 68%
    11:00 +6°C° 0.3 mm 8 mps 753 mmHg 69%
    12:00 +6°C° 0.3 mm 9 mps 752 mmHg 69%
    13:00 +6°C° 0.3 mm 9 mps 750 mmHg 69%
    14:00 +6°C° 0.9 mm 10 mps 749 mmHg 72%
    15:00 +6°C° 0.9 mm 10 mps 748 mmHg 76%
    16:00 +5°C° 0.9 mm 10 mps 747 mmHg 80%
    17:00 +6°C° 1.5 mm 11 mps 745 mmHg 80%
    18:00 +6°C° 1.5 mm 11 mps 744 mmHg 81%
    19:00 +7°C° 1.5 mm 12 mps 743 mmHg 81%
    20:00 +7°C° 0.9 mm 12 mps 742 mmHg 82%
    21:00 +8°C° 0.9 mm 12 mps 741 mmHg 83%
    22:00 +9°C° 0.9 mm 12 mps 740 mmHg 83%
    23:00 +8°C° 0.9 mm 11 mps 740 mmHg 80%

    24 October, Wednesday

    Time Temperature Precipitation Wind Pressure Humidity
    00:00 +8°C° 0.9 mm 11 mps 740 mmHg 77%
    01:00 +8°C° 0.9 mm 11 mps 739 mmHg 73%
    02:00 +7°C° 0.1 mm 11 mps 740 mmHg 72%
    03:00 +6°C° 0.1 mm 11 mps 740 mmHg 71%
    04:00 +4°C° 0.1 mm 11 mps 740 mmHg 69%
    05:00 +5°C° 0.2 mm 10 mps 741 mmHg 68%
    06:00 +3°C° 0.2 mm 9 mps 742 mmHg 66%
    07:00 +4°C° 0.2 mm 8 mps 743 mmHg 65%
    08:00 +3°C° 0 mm 9 mps 743 mmHg 58%
    09:00 +5°C° 0 mm 10 mps 744 mmHg 52%
    10:00 +5°C° 0 mm 10 mps 744 mmHg 46%
    11:00 +6°C° 0 mm 10 mps 745 mmHg 44%
    12:00 +6°C° 0 mm 10 mps 745 mmHg 42%
    13:00 +6°C° 0 mm 10 mps 745 mmHg 41%
    14:00 +6°C° 0 mm 9 mps 745 mmHg 42%
    15:00 +6°C° 0 mm 8 mps 746 mmHg 43%
    16:00 +6°C° 0 mm 8 mps 746 mmHg 45%
    17:00 +5°C° 0 mm 7 mps 747 mmHg 47%
    18:00 +4°C° 0 mm 7 mps 747 mmHg 50%
    19:00 +4°C° 0 mm 7 mps 748 mmHg 53%
    20:00 +3°C° 0 mm 6 mps 748 mmHg 55%
    21:00 +3°C° 0 mm 6 mps 748 mmHg 57%
    22:00 +3°C° 0 mm 6 mps 749 mmHg 59%
    23:00 +3°C° 0 mm 6 mps 749 mmHg 61%

    25 October, Thursday

    Time Temperature Precipitation Wind Pressure Humidity
    00:00 +2°C° 0 mm 6 mps 749 mmHg 63%
    01:00 +2°C° 0 mm 6 mps 749 mmHg 65%
    02:00 +2°C° 0 mm 6 mps 749 mmHg 67%
    03:00 +2°C° 0 mm 6 mps 750 mmHg 69%
    04:00 +2°C° 0 mm 6 mps 750 mmHg 70%
    05:00 +2°C° 0 mm 6 mps 750 mmHg 72%
    06:00 +2°C° 0 mm 6 mps 749 mmHg 73%
    07:00 +2°C° 0 mm 6 mps 749 mmHg 75%
    08:00 +3°C° 0.3 mm 6 mps 749 mmHg 79%
    09:00 +3°C° 0.3 mm 6 mps 748 mmHg 82%
    10:00 +4°C° 0.3 mm 6 mps 748 mmHg 86%
    11:00 +5°C° 0.3 mm 7 mps 747 mmHg 86%
    12:00 +6°C° 0.3 mm 7 mps 746 mmHg 86%
    13:00 +9°C° 0.3 mm 8 mps 745 mmHg 86%
    14:00 +9°C° 0.1 mm 8 mps 745 mmHg 83%
    15:00 +9°C° 0.1 mm 8 mps 745 mmHg 80%
    16:00 +9°C° 0.1 mm 8 mps 744 mmHg 76%
    17:00 +9°C° 0.1 mm 8 mps 744 mmHg 77%
    18:00 +9°C° 0.1 mm 8 mps 744 mmHg 78%
    19:00 +9°C° 0.1 mm 8 mps 744 mmHg 79%
    20:00 +8°C° 0.1 mm 9 mps 744 mmHg 79%
    21:00 +8°C° 0.1 mm 9 mps 744 mmHg 79%
    22:00 +8°C° 0.1 mm 9 mps 744 mmHg 80%
    23:00 +9°C° 0.2 mm 8 mps 744 mmHg 80%

    26 October, Friday

    Time Temperature Precipitation Wind Pressure Humidity
    00:00 +9°C° 0.2 mm 8 mps 745 mmHg 81%
    01:00 +9°C° 0.2 mm 7 mps 745 mmHg 81%
    02:00 +8°C° 0.3 mm 7 mps 745 mmHg 82%
    03:00 +8°C° 0.3 mm 6 mps 745 mmHg 84%
    04:00 +8°C° 0.3 mm 6 mps 745 mmHg 86%
    05:00 +8°C° 0.3 mm 6 mps 745 mmHg 87%
    06:00 +8°C° 0.3 mm 6 mps 745 mmHg 87%
    07:00 +8°C° 0.3 mm 6 mps 745 mmHg 88%
    08:00 +8°C° 0.1 mm 6 mps 745 mmHg 87%
    09:00 +8°C° 0.1 mm 6 mps 745 mmHg 85%
    10:00 +8°C° 0.1 mm 6 mps 745 mmHg 84%
    11:00 +9°C° 0 mm 6 mps 745 mmHg 80%
    12:00 +10°C° 0 mm 6 mps 745 mmHg 76%
    13:00 +11°C° 0 mm 6 mps 744 mmHg 73%
    14:00 +10°C° 0 mm 5 mps 744 mmHg 73%
    15:00 +10°C° 0 mm 5 mps 744 mmHg 74%
    16:00 +11°C° 0 mm 4 mps 743 mmHg 74%
    17:00 +10°C° 0 mm 4 mps 743 mmHg 75%
    18:00 +10°C° 0 mm 4 mps 743 mmHg 76%
    19:00 +8°C° 0 mm 4 mps 743 mmHg 77%
    20:00 +8°C° 0 mm 4 mps 743 mmHg 79%
    21:00 +7°C° 0 mm 4 mps 742 mmHg 80%
    22:00 +7°C° 0 mm 4 mps 742 mmHg 82%
    23:00 +7°C° 0 mm 4 mps 742 mmHg 84%
    Show more